Granite Falls, MN

10:14 AM CST on December 13, 2019 (GMT -0600)
Granite Falls

Weather History for KGDB - October, 2019

Change the Weather History Date:

Saturday, October 5, 2019

  Actual Average (WUND) Record (WUND)
Temperature  
Mean Temperature 54 °F -  
Max Temperature 60 °F - - (-1)
Min Temperature 47 °F - - (-1)
Degree Days  
Heating Degree Days 12    
Growing Degree Days 4 (Base 50)    
Moisture  
Dew Point 48 °F    
Average Humidity 86    
Maximum Humidity 95    
Minimum Humidity 69    
Precipitation  
Precipitation 0.23 in - - ()
Sea Level Pressure  
Sea Level Pressure 29.82 in    
Wind  
Wind Speed 14 mph (South)    
Max Wind Speed 32 mph    
Max Gust Speed 41 mph    
Visibility 10 miles    
Events Rain , Thunderstorm    
Averages and records for this station are not official NWS values.
T = Trace of Precipitation, MM = Missing Value Source: NWS Daily Summary

Daily Weather History Graph

Daily Weather History Graph

Search for Another Location

Airport or City:

Astronomy

Oct. 05, 2019 Rise Set
Actual Time 7:24 AM CDT 6:55 PM CDT
Civil Twilight 6:55 AM CDT 7:24 PM CDT
Nautical Twilight 6:21 AM CDT 7:58 PM CDT
Astronomical Twilight 5:47 AM CDT 8:32 PM CDT
Moon 3:05 PM CDT (10/5) No Moon Set
Length of Visible Light 12h 29m
Length of Day
11h 30m
Waxing Crescent, 50% of the Moon is Illuminated
Oct 5
Waxing Crescent
Oct 13
Full
Oct 21
Last Quarter
Oct 27
New
Nov 4
First Quarter

Hourly Weather History & Observations

Time (CDT) Temp. Dew Point Humidity Pressure Visibility Wind Dir Wind Speed Gust Speed Precip Events Conditions
12:15 AM 47.5 °F 45.1 °F 92% 30.06 in 10.0 mi East 12.7 mph 18.4 mph N/A Thunderstorm Overcast
12:16 AM 47.5 °F 45.1 °F 92% 30.06 in 10.0 mi East 12.7 mph 18.4 mph N/A Thunderstorm Unknown
12:35 AM 48.2 °F 45.7 °F 91% 30.03 in 10.0 mi East 13.8 mph 20.7 mph N/A Thunderstorm Overcast
12:40 AM 48.2 °F 45.5 °F 90% 30.03 in 10.0 mi East 12.7 mph 21.9 mph N/A Thunderstorm Overcast
12:58 AM 48.6 °F 46.0 °F 91% 30.03 in 10.0 mi East 13.8 mph 23.0 mph N/A Thunderstorm Overcast
1:15 AM 49.1 °F 46.2 °F 90% 30.01 in 10.0 mi East 11.5 mph 17.3 mph N/A Rain , Thunderstorm Rain
1:35 AM 49.1 °F 46.4 °F 90% 30.00 in 10.0 mi East 17.3 mph 23.0 mph 0.03 in Rain Light Rain
1:55 AM 49.1 °F 46.8 °F 92% 29.97 in 10.0 mi ESE 18.4 mph 23.0 mph 0.04 in Rain , Thunderstorm Light Thunderstorms and Rain
1:56 AM 49.1 °F 46.6 °F 91% 29.97 in 10.0 mi ESE 19.6 mph 23.0 mph 0.04 in Rain , Thunderstorm Light Thunderstorms and Rain
2:18 AM 49.1 °F 46.8 °F 92% 29.95 in 10.0 mi ESE 18.4 mph 26.5 mph 0.03 in Thunderstorm Overcast
2:37 AM 49.1 °F 46.8 °F 92% 29.94 in 10.0 mi ESE 17.3 mph 25.3 mph 0.04 in Rain , Thunderstorm Light Thunderstorms and Rain
3:15 AM 49.5 °F 47.7 °F 94% 29.97 in 4.0 mi SE 9.2 mph 23.0 mph 0.02 in Rain , Thunderstorm Rain
3:16 AM 49.5 °F 47.7 °F 94% 29.97 in 4.0 mi SE 6.9 mph 23.0 mph 0.02 in Rain Rain
3:35 AM 49.8 °F 48.2 °F 94% 29.97 in 5.0 mi SE 9.2 mph - 0.09 in Rain , Thunderstorm Rain
3:57 AM 50.0 °F 48.2 °F 94% 29.95 in 7.0 mi ESE 8.1 mph - 0.12 in Rain Light Rain
4:16 AM 50.0 °F 48.6 °F 95% 29.93 in 5.0 mi ESE 9.2 mph 17.3 mph 0.03 in Rain Rain
4:35 AM 50.0 °F 48.6 °F 95% 29.92 in 10.0 mi ESE 11.5 mph - 0.03 in Rain Light Rain
4:55 AM 50.0 °F 48.7 °F 95% 29.89 in 10.0 mi ESE 12.7 mph 17.3 mph 0.03 in Rain Light Rain
4:56 AM 50.0 °F 48.7 °F 95% 29.89 in 10.0 mi ESE 11.5 mph 17.3 mph 0.03 in Rain Light Rain
5:18 AM 50.2 °F 48.9 °F 95% 29.88 in 10.0 mi ESE 12.7 mph - N/A   Overcast
5:36 AM 50.5 °F 49.3 °F 95% 29.88 in 10.0 mi ESE 11.5 mph 18.4 mph N/A   Overcast
5:55 AM 50.5 °F 49.3 °F 95% 29.87 in 10.0 mi ESE 10.4 mph - N/A   Overcast
5:56 AM 50.5 °F 49.3 °F 95% 29.86 in 10.0 mi ESE 10.4 mph - N/A   Overcast
6:15 AM 50.5 °F 49.1 °F 95% 29.85 in 10.0 mi ESE 9.2 mph - N/A   Overcast
6:16 AM 50.5 °F 49.1 °F 95% 29.85 in 10.0 mi ESE 9.2 mph - N/A   Overcast
6:39 AM 50.5 °F 49.1 °F 95% 29.85 in 10.0 mi ESE 11.5 mph 16.1 mph N/A   Overcast
6:56 AM 50.9 °F 49.1 °F 94% 29.84 in 10.0 mi ESE 11.5 mph 16.1 mph N/A   Overcast
7:16 AM 51.1 °F 49.3 °F 94% 29.83 in 10.0 mi ESE 11.5 mph 20.7 mph N/A   Overcast
7:35 AM 51.4 °F 49.6 °F 94% 29.82 in 10.0 mi ESE 13.8 mph 18.4 mph N/A   Overcast
7:55 AM 51.6 °F 49.8 °F 94% 29.80 in 10.0 mi ESE 12.7 mph - N/A   Overcast
7:59 AM 51.8 °F 50.0 °F 94% 29.80 in 10.0 mi ESE 9.2 mph - N/A   Overcast
8:18 AM 51.8 °F 50.0 °F 94% 29.78 in 10.0 mi SE 12.7 mph - N/A   Overcast
8:36 AM 52.2 °F 50.7 °F 95% 29.77 in 10.0 mi SE 11.5 mph - N/A   Overcast
8:55 AM 52.3 °F 50.9 °F 95% 29.76 in 10.0 mi SE 9.2 mph - N/A   Overcast
8:56 AM 52.3 °F 50.9 °F 95% 29.76 in 10.0 mi SE 10.4 mph - N/A   Overcast
9:15 AM 52.7 °F 50.9 °F 94% 29.76 in 10.0 mi SE 8.1 mph - N/A   Overcast
9:16 AM 52.7 °F 50.9 °F 94% 29.76 in 10.0 mi SE 8.1 mph - N/A   Overcast
9:38 AM 53.2 °F 51.3 °F 93% 29.74 in 10.0 mi SE 9.2 mph - N/A   Overcast
9:56 AM 54.1 °F 52.0 °F 92% 29.73 in 10.0 mi SSE 8.1 mph - N/A   Overcast
10:15 AM 54.1 °F 51.8 °F 92% 29.73 in 10.0 mi SSE 10.4 mph 16.1 mph N/A   Overcast
10:35 AM 54.1 °F 51.8 °F 92% 29.72 in 10.0 mi SSE 11.5 mph - N/A   Overcast
10:36 AM 54.1 °F 51.8 °F 92% 29.72 in 10.0 mi SSE 10.4 mph - N/A   Overcast
10:55 AM 54.1 °F 52.0 °F 92% 29.72 in 10.0 mi South 10.4 mph - N/A   Overcast
10:59 AM 54.1 °F 52.0 °F 92% 29.72 in 10.0 mi South 9.2 mph - N/A   Overcast
11:18 AM 54.5 °F 52.0 °F 91% 29.71 in 10.0 mi South 6.9 mph - N/A   Overcast
11:35 AM 54.9 °F 52.7 °F 92% 29.70 in 10.0 mi SSE 9.2 mph - N/A   Overcast
11:55 AM 55.9 °F 53.6 °F 92% 29.68 in 10.0 mi SSE 8.1 mph - N/A   Overcast
11:56 AM 55.9 °F 53.6 °F 92% 29.68 in 10.0 mi SSE 8.1 mph - N/A   Overcast
12:15 PM 57.2 °F 54.0 °F 89% 29.68 in 10.0 mi South 11.5 mph - N/A   Overcast
12:38 PM 58.5 °F 54.5 °F 87% 29.67 in 10.0 mi South 11.5 mph - N/A   Overcast
12:57 PM 60.1 °F 54.3 °F 81% 29.67 in 10.0 mi SW 17.3 mph 24.2 mph N/A   Overcast
1:16 PM 60.3 °F 52.5 °F 76% 29.67 in 10.0 mi SW 21.9 mph 29.9 mph N/A   Overcast
1:35 PM 59.0 °F 51.6 °F 76% 29.68 in 10.0 mi SW 24.2 mph 33.4 mph N/A   Overcast
1:36 PM 59.0 °F 51.6 °F 76% 29.68 in 10.0 mi WSW 25.3 mph 33.4 mph N/A   Overcast
1:55 PM 57.6 °F 50.0 °F 76% 29.69 in 10.0 mi SW 26.5 mph 34.5 mph N/A   Overcast
1:59 PM 57.2 °F 49.5 °F 75% 29.69 in 10.0 mi WSW 28.8 mph 34.5 mph N/A   Overcast
2:17 PM 57.4 °F 49.3 °F 74% 29.69 in 10.0 mi SW 23.0 mph 33.4 mph N/A   Overcast
2:35 PM 59.2 °F 49.1 °F 69% 29.69 in 10.0 mi WSW 27.6 mph 35.7 mph N/A   Mostly Cloudy
2:55 PM 58.5 °F 48.6 °F 70% 29.69 in 10.0 mi WSW 29.9 mph 38.0 mph N/A   Mostly Cloudy
3:15 PM 57.6 °F 48.2 °F 71% 29.71 in 10.0 mi WSW 26.5 mph 38.0 mph N/A   Overcast
3:16 PM 57.6 °F 48.2 °F 71% 29.71 in 10.0 mi WSW 25.3 mph 38.0 mph N/A   Overcast
3:39 PM 57.2 °F 48.4 °F 72% 29.71 in 10.0 mi WSW 27.6 mph 33.4 mph N/A   Overcast
3:56 PM 56.8 °F 48.7 °F 74% 29.71 in 10.0 mi WSW 24.2 mph 35.7 mph N/A   Overcast
4:16 PM 56.1 °F 49.3 °F 78% 29.73 in 10.0 mi WSW 26.5 mph 38.0 mph N/A   Overcast
4:35 PM 56.1 °F 48.4 °F 75% 29.74 in 10.0 mi West 32.2 mph 39.1 mph N/A   Mostly Cloudy
4:55 PM 55.9 °F 46.9 °F 72% 29.76 in 10.0 mi West 31.1 mph 40.3 mph N/A   Mostly Cloudy
4:59 PM 55.9 °F 46.8 °F 71% 29.76 in 10.0 mi West 29.9 mph 40.3 mph N/A   Mostly Cloudy
5:17 PM 55.9 °F 46.8 °F 71% 29.77 in 10.0 mi West 23.0 mph 41.4 mph N/A   Overcast
5:36 PM 54.1 °F 47.8 °F 79% 29.79 in 10.0 mi WSW 20.7 mph 31.1 mph N/A   Overcast
5:55 PM 54.1 °F 47.7 °F 79% 29.80 in 10.0 mi West 26.5 mph 35.7 mph N/A   Overcast
5:56 PM 54.1 °F 47.5 °F 78% 29.80 in 10.0 mi West 26.5 mph 35.7 mph N/A   Overcast
6:15 PM 54.1 °F 46.8 °F 76% 29.81 in 10.0 mi West 19.6 mph 34.5 mph N/A   Overcast
6:37 PM 53.4 °F 46.4 °F 77% 29.81 in 10.0 mi West 15.0 mph 27.6 mph N/A   Mostly Cloudy
6:56 PM 53.6 °F 46.2 °F 76% 29.82 in 10.0 mi West 17.3 mph 23.0 mph N/A   Mostly Cloudy
7:15 PM 53.1 °F 45.5 °F 75% 29.83 in 10.0 mi West 17.3 mph 25.3 mph N/A   Scattered Clouds
7:16 PM 53.1 °F 45.5 °F 75% 29.83 in 10.0 mi West 16.1 mph 25.3 mph N/A   Scattered Clouds
7:35 PM 52.3 °F 45.9 °F 79% 29.83 in 10.0 mi West 16.1 mph 23.0 mph N/A   Clear
7:36 PM 52.3 °F 45.9 °F 79% 29.83 in 10.0 mi West 16.1 mph 23.0 mph N/A   Clear
7:59 PM 51.6 °F 45.5 °F 80% 29.85 in 10.0 mi WSW 12.7 mph - N/A   Clear
8:16 PM 50.4 °F 45.5 °F 83% 29.84 in 10.0 mi WSW 9.2 mph - N/A   Clear
8:36 PM 47.3 °F 44.1 °F 88% 29.84 in 10.0 mi SW 8.1 mph - N/A   Clear
8:55 PM 48.0 °F 44.8 °F 89% 29.84 in 10.0 mi SW 9.2 mph - N/A   Clear
8:56 PM 47.8 °F 44.6 °F 89% 29.84 in 10.0 mi SW 9.2 mph - N/A   Clear
9:15 PM 48.2 °F 44.6 °F 87% 29.85 in 10.0 mi WSW 11.5 mph - N/A   Clear
9:19 PM 48.7 °F 45.0 °F 87% 29.85 in 10.0 mi WSW 11.5 mph - N/A   Clear
9:38 PM 49.1 °F 44.8 °F 85% 29.86 in 10.0 mi SW 11.5 mph - N/A   Clear
9:55 PM 49.1 °F 44.6 °F 84% 29.87 in 10.0 mi WSW 11.5 mph - N/A   Clear
10:15 PM 49.3 °F 44.6 °F 84% 29.88 in 10.0 mi WSW 11.5 mph - N/A   Clear
10:35 PM 49.3 °F 44.6 °F 84% 29.88 in 10.0 mi SW 11.5 mph - N/A   Scattered Clouds
10:58 PM 50.5 °F 44.8 °F 81% 29.88 in 10.0 mi SW 11.5 mph - N/A   Mostly Cloudy
11:16 PM 49.8 °F 44.1 °F 81% 29.88 in 10.0 mi WSW 10.4 mph - N/A   Scattered Clouds
11:35 PM 49.1 °F 43.7 °F 82% 29.88 in 10.0 mi WSW 10.4 mph - N/A   Clear
11:36 PM 49.1 °F 43.7 °F 82% 29.88 in 10.0 mi WSW 10.4 mph - N/A   Clear
11:55 PM 47.5 °F 43.0 °F 84% 29.89 in 10.0 mi WSW 10.4 mph - N/A   Clear
11:56 PM 47.5 °F 43.0 °F 84% 29.89 in 10.0 mi WSW 10.4 mph - N/A   Clear